Winslow, AZ

6:46 PM MST on February 23, 2017 (GMT -0700)
Winslow-Lindbergh Regional

Weather History for KINW - January, 2013

Change the Weather History Date:

Saturday, January 12, 2013

  Actual Average Record
Temperature  
Mean Temperature 19 °F 35 °F  
Max Temperature 33 °F 49 °F 68 °F (1923)
Min Temperature 5 °F 20 °F -7 °F (1963)
Degree Days  
Heating Degree Days 46 30  
Month to date heating degree days 467 371  
Since 1 July heating degree days 2114 2249  
Cooling Degree Days 0 0  
Month to date cooling degree days 0 0  
Year to date cooling degree days 0 0  
Moisture  
Dew Point 2 °F    
Average Humidity 56    
Maximum Humidity 83    
Minimum Humidity 28    
Precipitation  
Precipitation 0.00 in 0.02 in 0.61 in (1982)
Month to date precipitation 0.02 0.21  
Year to date precipitation 0.02 0.21  
Sea Level Pressure  
Sea Level Pressure 30.05 in    
Wind  
Wind Speed 5 mph (SSW)    
Max Wind Speed 15 mph    
Max Gust Speed 22 mph    
Visibility 10 miles    
Events      
T = Trace of Precipitation, MM = Missing Value Source: NWS Daily Summary

Daily Weather History Graph

Daily Weather History Graph

Search for Another Location

Airport or City:

Trip Planner

Search our weather history database for the weather conditions in past years. The results will help you decide how hot, cold, wet, or windy it might be!

Date:

Astronomy

Jan. 12, 2013 Rise Set
Actual Time 7:31 AM MST 5:31 PM MST
Civil Twilight 7:03 AM MST 5:59 PM MST
Nautical Twilight 6:32 AM MST 6:30 PM MST
Astronomical Twilight 6:01 AM MST 7:01 PM MST
Moon 7:56 AM MST (1/12) 7:00 PM MST (1/12)
Length of Visible Light 10h 56m
Length of Day
10h 00m
New Moon, 1% of the Moon is Illuminated
Jan 12
New Moon
Jan 18
First Quarter
Jan 26
Full
Feb 3
Last Quarter
Feb 10
New

Hourly Weather History & Observations

Time (MST) Temp. Windchill Dew Point Humidity Pressure Visibility Wind Dir Wind Speed Gust Speed Precip Events Conditions
12:56 AM 12.9 °F 3.8 °F 3.0 °F 65% 30.01 in 10.0 mi WSW 5.8 mph - N/A   Scattered Clouds
1:56 AM 12.9 °F 3.8 °F 1.9 °F 62% 30.01 in 10.0 mi SW 5.8 mph - N/A   Partly Cloudy
2:56 AM 12.0 °F - 1.9 °F 64% 30.00 in 10.0 mi Calm Calm - N/A   Clear
3:56 AM 10.9 °F - 1.0 °F 64% 30.00 in 10.0 mi Calm Calm - N/A   Clear
4:56 AM 8.1 °F - -0.0 °F 70% 30.01 in 10.0 mi Calm Calm - N/A   Clear
5:56 AM 7.0 °F - -0.9 °F 70% 30.04 in 10.0 mi Calm Calm - N/A   Clear
6:56 AM 5.0 °F -4.1 °F -0.0 °F 80% 30.08 in 10.0 mi ESE 4.6 mph - N/A   Clear
7:56 AM 6.1 °F -0.9 °F -0.9 °F 73% 30.13 in 10.0 mi ESE 3.5 mph - N/A   Clear
8:56 AM 12.0 °F 2.7 °F 3.0 °F 67% 30.16 in 10.0 mi ESE 5.8 mph - N/A   Mostly Cloudy
9:56 AM 17.1 °F 11.7 °F 3.0 °F 54% 30.15 in 10.0 mi ESE 3.5 mph - N/A   Mostly Cloudy
10:56 AM 21.9 °F 14.5 °F 3.9 °F 46% 30.10 in 10.0 mi SE 5.8 mph - N/A   Partly Cloudy
11:56 AM 27.0 °F 21.6 °F 3.0 °F 36% 30.06 in 10.0 mi Variable 4.6 mph - N/A   Partly Cloudy
12:56 PM 28.0 °F - 1.9 °F 33% 30.03 in 10.0 mi Calm Calm - N/A   Overcast
1:56 PM 30.0 °F 20.0 °F 1.9 °F 30% 30.01 in 10.0 mi SSW 12.7 mph 21.9 mph N/A   Mostly Cloudy
2:56 PM 30.9 °F 21.2 °F 1.9 °F 29% 30.01 in 10.0 mi NW 12.7 mph 17.3 mph N/A   Overcast
3:56 PM 30.9 °F 25.2 °F 1.0 °F 28% 30.02 in 10.0 mi NW 5.8 mph - N/A   Mostly Cloudy
4:56 PM 30.2 °F 21.9 °F 1.4 °F 29% 29.92 in 5.0 mi WNW 9.2 mph - N/A   Haze
5:56 PM 28.0 °F - 1.9 °F 33% 30.06 in 10.0 mi Calm Calm - N/A   Clear
6:56 PM 27.0 °F 23.0 °F 1.9 °F 34% 30.09 in 10.0 mi North 3.5 mph - N/A   Overcast
7:56 PM 25.0 °F - 1.0 °F 36% 30.10 in 10.0 mi Calm Calm - N/A   Scattered Clouds
8:56 PM 18.0 °F 8.7 °F 1.0 °F 48% 30.12 in 10.0 mi SW 6.9 mph - N/A   Scattered Clouds
9:56 PM 21.0 °F 16.2 °F 5.0 °F 50% 30.10 in 10.0 mi SSW 3.5 mph - N/A   Overcast
10:56 PM 21.2 °F 10.9 °F 6.8 °F 54% 29.98 in 10.0 mi SW 9.2 mph - N/A   Overcast
11:56 PM 18.0 °F 11.1 °F 5.0 °F 57% 30.09 in 10.0 mi West 4.6 mph - N/A   Mostly Cloudy